Home   Weather   Ogden   Past weeks
Flag for USA

Past Weather in Ogden, Utah, USA — Yesterday and Last 2 Weeks

Now
56 °F

Sunny.


Feels Like: 54 °F
Forecast: 80 / 54 °F
Wind: 7 mph from South

Location: Ogden-Hinckley Airport

Current Time: Jun 24, 2019 at 7:37:27 am

Latest Report: Jun 24, 2019 at 6:53 am


Visibility: 10 mi

Pressure: 29.86 "Hg (25.54 "Hg at 1310m altitude)

Humidity: 46%

Dew Point: 35 °F

Location of OgdenLocation

Past Weather in Ogden — Graph

°F

Ogden Temperature Yesterday

Maximum temperature yesterday: 75 °F (at 4:53 pm)
Minimum temperature yesterday: 47 °F (at 5:53 am)
Average temperature yesterday: 63 °F

High & Low Weather Summary for the Past Weeks

 TemperatureHumidityPressure
High84 °F (Jun 13, 4:53 pm)81% (Jun 18, 2:53 am)30.43 "Hg (Jun 18, 2:53 am)
Low40 °F (Jun 9, 5:53 am)13% (Jun 10, 3:53 pm)29.57 "Hg (Jun 20, 1:53 pm)
Average66 °F36%29.93 "Hg
* Reported Jun 9 5:53 am — Jun 24 5:53 am, Ogden. Weather by CustomWeather, © 2019

Note: Actual official high and low records may vary slightly from our data, if they occured in-between our weather recording intervals... More about our weather records

Advertising

Ogden Weather History for the Previous 24 Hours

Scroll right to see more
 ConditionsComfort  
Time TempWeatherWind HumidityBarometerVisibility
5:53 am
Mon, Jun 24
55 °FOvercast.9 mph45%29.86 "Hg10 mi
4:53 am53 °FClear.6 mph51%29.86 "Hg10 mi
3:53 am56 °FClear.No wind58%29.85 "Hg10 mi
2:53 am61 °FClear.7 mph39%29.83 "Hg10 mi
1:53 am64 °FPassing clouds.8 mph29%29.82 "Hg10 mi
12:53 am67 °FPassing clouds.9 mph25%29.83 "Hg10 mi
11:53 pm
Sun, Jun 23
69 °FPassing clouds.12 mph22%29.80 "Hg10 mi
10:53 pm67 °FPassing clouds.8 mph25%29.82 "Hg10 mi
9:53 pm67 °FPassing clouds.10 mph25%29.83 "Hg10 mi
8:53 pm71 °FScattered clouds.10 mph19%29.83 "Hg10 mi
7:53 pm74 °FSunny.13 mph16%29.85 "Hg10 mi
6:53 pm75 °FSunny.14 mph16%29.87 "Hg10 mi
5:53 pm74 °FSunny.10 mph17%29.90 "Hg10 mi
4:53 pm75 °FSunny.9 mph15%29.92 "Hg10 mi
3:53 pm74 °FPassing clouds.9 mph16%29.94 "Hg10 mi
2:53 pm73 °FSunny.12 mph17%29.97 "Hg10 mi
1:53 pm72 °FSunny.12 mph17%29.98 "Hg10 mi
12:53 pm71 °FSunny.8 mph18%29.99 "Hg10 mi
11:53 am69 °FSunny.12 mph21%30.00 "Hg10 mi
10:53 am67 °FSunny.10 mph21%30.01 "Hg10 mi
9:53 am64 °FSunny.8 mph28%30.01 "Hg10 mi
8:53 am59 °FSunny.7 mph36%30.03 "Hg10 mi
7:53 am54 °FSunny.6 mph45%30.03 "Hg10 mi
Weather by CustomWeather, © 2019

See weather overview